Weather History for Bainbridge, GA

Change the Weather History Date:

Wednesday, May 2, 2012

  Actual Average (KMAI) Record (KMAI)
Temperature  
Mean Temperature 79 °F 71 °F  
Max Temperature 89 °F 84 °F 91 °F (2002)
Min Temperature 69 °F 59 °F 48 °F (2005)
Degree Days  
Heating Degree Days 0    
Month to date heating degree days  
Since 1 July heating degree days  
Cooling Degree Days 14    
Month to date cooling degree days  
Year to date cooling degree days  
Growing Degree Days 29 (Base 50)    
Moisture  
Dew Point 67 °F    
Average Humidity 67    
Maximum Humidity 94    
Minimum Humidity 43    
Precipitation  
Precipitation 0.00 in 0.06 in 0.08 in (2003)
Month to date precipitation 0.11  
Year to date precipitation 19.34  
Sea Level Pressure  
Sea Level Pressure 30.07 in    
Wind  
Wind Speed 7 mph (SSE)    
Max Wind Speed 13 mph    
Max Gust Speed 17 mph    
Visibility 10 miles    
Events      
T = Trace of Precipitation, MM = Missing Value Source: NWS Daily Summary

Daily Weather History Graph

Daily Weather History Graph

Search for Another Location

Airport:

Trip Planner

Search our weather history database for the weather conditions in past years. The results will help you decide how hot, cold, wet, or windy it might be!

Date:

Astronomy

May. 02, 2012 Rise Set
Actual Time 6:52 AM EDT 8:18 PM EDT
Civil Twilight 6:27 AM EDT 8:44 PM EDT
Nautical Twilight 5:56 AM EDT 9:15 PM EDT
Astronomical Twilight 5:24 AM EDT 9:47 PM EDT
Moon 4:43 PM EDT (5/2) 4:06 AM EDT (5/2)
Length of Visible Light 14h 17m
Length of Day
13h 25m
Waxing Gibbous, 83% of the Moon is Illuminated
May 2
Waxing Gibbous
May 5
Full
May 12
Last Quarter
May 20
New
May 28
First Quarter

Hourly Weather History & Observations

Time (EDT) Temp. Heat Index Dew Point Humidity Pressure Visibility Wind Dir Wind Speed Gust Speed Precip Events Conditions
12:15 AM 77.0 °F - 68.0 °F 74% 30.06 in 10.0 mi East 3.5 mph - N/A   Scattered Clouds
12:35 AM 75.2 °F - 66.2 °F 73% 30.07 in 10.0 mi SE 5.8 mph - N/A   Scattered Clouds
12:55 AM 77.0 °F - 66.2 °F 69% 30.07 in 10.0 mi SE 10.4 mph - N/A   Scattered Clouds
1:15 AM 77.0 °F - 66.2 °F 69% 30.07 in 10.0 mi SE 6.9 mph - N/A   Clear
1:35 AM 77.0 °F - 68.0 °F 74% 30.06 in 10.0 mi SE 9.2 mph - N/A   Clear
1:55 AM 77.0 °F - 68.0 °F 74% 30.06 in 10.0 mi SE 10.4 mph - N/A   Clear
2:15 AM 77.0 °F - 68.0 °F 74% 30.06 in 10.0 mi SE 9.2 mph - N/A   Clear
2:35 AM 75.2 °F - 66.2 °F 73% 30.06 in 10.0 mi SE 9.2 mph - N/A   Clear
2:55 AM 73.4 °F - 66.2 °F 78% 30.05 in 10.0 mi SE 9.2 mph - N/A   Clear
3:15 AM 73.4 °F - 66.2 °F 78% 30.05 in 10.0 mi SE 10.4 mph - N/A   Clear
3:55 AM 73.4 °F - 68.0 °F 83% 30.06 in 10.0 mi SE 6.9 mph - N/A   Clear
4:15 AM 73.4 °F - 68.0 °F 83% 30.05 in 10.0 mi ESE 8.1 mph - N/A   Clear
4:35 AM 73.4 °F - 66.2 °F 78% 30.05 in 10.0 mi SE 9.2 mph - N/A   Clear
4:55 AM 71.6 °F - 66.2 °F 83% 30.05 in 10.0 mi SE 9.2 mph - N/A   Clear
5:35 AM 71.6 °F - 68.0 °F 88% 30.05 in 10.0 mi SE 8.1 mph - N/A   Clear
5:55 AM 71.6 °F - 66.2 °F 83% 30.05 in 10.0 mi SE 8.1 mph - N/A   Clear
6:15 AM 69.8 °F - 66.2 °F 88% 30.05 in 10.0 mi SE 6.9 mph - N/A   Clear
6:35 AM 69.8 °F - 66.2 °F 88% 30.06 in 10.0 mi SE 5.8 mph - N/A   Clear
6:55 AM 69.8 °F - 68.0 °F 94% 30.06 in 10.0 mi SE 5.8 mph - N/A   Clear
7:15 AM 69.8 °F - 68.0 °F 94% 30.07 in 10.0 mi ESE 4.6 mph - N/A   Clear
7:35 AM 69.8 °F - 68.0 °F 94% 30.08 in 10.0 mi SE 5.8 mph - N/A   Clear
7:55 AM 71.6 °F - 68.0 °F 88% 30.10 in 10.0 mi SE 5.8 mph - N/A   Clear
8:35 AM 73.4 °F - 69.8 °F 88% 30.10 in 10.0 mi SE 5.8 mph - N/A   Clear
8:55 AM 73.4 °F - 69.8 °F 88% 30.11 in 10.0 mi SE 6.9 mph - N/A   Clear
9:15 AM 73.4 °F - 69.8 °F 88% 30.11 in 10.0 mi SE 4.6 mph - N/A   Scattered Clouds
9:35 AM 77.0 °F - 69.8 °F 78% 30.12 in 10.0 mi SE 5.8 mph - N/A   Scattered Clouds
9:55 AM 77.0 °F - 69.8 °F 78% 30.12 in 10.0 mi SSE 6.9 mph - N/A   Scattered Clouds
10:15 AM 77.0 °F - 69.8 °F 78% 30.12 in 10.0 mi South 4.6 mph - N/A   Scattered Clouds
10:35 AM 80.6 °F 83.9 °F 69.8 °F 70% 30.13 in 10.0 mi South 5.8 mph - N/A   Scattered Clouds
10:55 AM 80.6 °F 83.2 °F 68.0 °F 65% 30.12 in 10.0 mi South 10.4 mph - N/A   Scattered Clouds
11:15 AM 80.6 °F 83.2 °F 68.0 °F 65% 30.13 in 10.0 mi SSE 3.5 mph - N/A   Scattered Clouds
11:35 AM 80.6 °F 83.2 °F 68.0 °F 65% 30.14 in 10.0 mi SSE 9.2 mph - N/A   Scattered Clouds
12:15 PM 82.4 °F 84.6 °F 66.2 °F 58% 30.14 in 10.0 mi South 9.2 mph - N/A   Scattered Clouds
12:35 PM 82.4 °F 84.6 °F 66.2 °F 58% 30.12 in 10.0 mi SSE 8.1 mph - N/A   Clear
12:55 PM 84.2 °F 86.6 °F 66.2 °F 55% 30.11 in 10.0 mi SSE 6.9 mph - N/A   Clear
1:15 PM 86.0 °F 89.4 °F 68.0 °F 55% 30.11 in 10.0 mi SE 8.1 mph - N/A   Clear
1:35 PM 87.8 °F 91.4 °F 68.0 °F 52% 30.11 in 10.0 mi ESE 6.9 mph - N/A   Clear
1:55 PM 89.6 °F 92.2 °F 66.2 °F 46% 30.10 in 10.0 mi SE 6.9 mph - N/A   Clear
2:35 PM 89.6 °F 92.2 °F 66.2 °F 46% 30.08 in 10.0 mi SSE 11.5 mph 16.1 mph N/A   Scattered Clouds
2:55 PM 89.6 °F 92.2 °F 66.2 °F 46% 30.07 in 10.0 mi ESE 10.4 mph - N/A   Scattered Clouds
3:15 PM 89.6 °F 92.2 °F 66.2 °F 46% 30.06 in 10.0 mi South 12.7 mph - N/A   Clear
3:35 PM 89.6 °F 92.2 °F 66.2 °F 46% 30.05 in 10.0 mi SSE 6.9 mph - N/A   Scattered Clouds
3:55 PM 89.6 °F 92.2 °F 66.2 °F 46% 30.04 in 10.0 mi South 10.4 mph - N/A   Scattered Clouds
4:15 PM 89.6 °F 91.1 °F 64.4 °F 43% 30.04 in 10.0 mi SSE 9.2 mph - N/A   Clear
4:35 PM 89.6 °F 91.1 °F 64.4 °F 43% 30.03 in 10.0 mi South 8.1 mph 17.3 mph N/A   Clear
4:55 PM 89.6 °F 91.1 °F 64.4 °F 43% 30.03 in 10.0 mi South 10.4 mph - N/A   Clear
5:15 PM 89.6 °F 91.1 °F 64.4 °F 43% 30.03 in 10.0 mi SE 10.4 mph 17.3 mph N/A   Clear
5:35 PM 89.6 °F 92.2 °F 66.2 °F 46% 30.03 in 10.0 mi South 8.1 mph 16.1 mph N/A   Clear
5:55 PM 89.6 °F 92.2 °F 66.2 °F 46% 30.03 in 10.0 mi South 9.2 mph - N/A   Scattered Clouds
6:15 PM 89.6 °F 92.2 °F 66.2 °F 46% 30.02 in 10.0 mi SSE 6.9 mph - N/A   Scattered Clouds
6:35 PM 89.6 °F 93.4 °F 68.0 °F 49% 30.02 in 10.0 mi South 9.2 mph - N/A   Clear
6:55 PM 87.8 °F 89.4 °F 64.4 °F 46% 30.03 in 10.0 mi South 10.4 mph - N/A   Clear
7:35 PM 82.4 °F 83.9 °F 64.4 °F 54% 30.02 in 10.0 mi South 6.9 mph - N/A   Clear
7:55 PM 82.4 °F 83.9 °F 64.4 °F 54% 30.03 in 10.0 mi SSW 5.8 mph - N/A   Clear
8:15 PM 80.6 °F 82.3 °F 64.4 °F 58% 30.03 in 10.0 mi South 4.6 mph - N/A   Clear
8:35 PM 80.6 °F 82.3 °F 64.4 °F 58% 30.03 in 10.0 mi SSW 4.6 mph - N/A   Clear
8:55 PM 80.6 °F 82.3 °F 64.4 °F 58% 30.04 in 10.0 mi SSW 3.5 mph - N/A   Clear
9:15 PM 78.8 °F - 64.4 °F 61% 30.05 in 10.0 mi SSW 4.6 mph - N/A   Clear
9:35 PM 77.0 °F - 64.4 °F 65% 30.06 in 10.0 mi SW 4.6 mph - N/A   Clear
11:15 PM 73.4 °F - 64.4 °F 73% 30.07 in 10.0 mi Calm Calm - N/A   Clear
11:35 PM 73.4 °F - 66.2 °F 78% 30.07 in 10.0 mi Calm Calm - N/A   Clear
11:55 PM 73.4 °F - 68.0 °F 83% 30.07 in 10.0 mi East 3.5 mph - N/A   Clear